| time (UTC) | temp F | wind direction | speed MPH | gust MPH | rain 1hr in | rain 24hr in | rain mn in | humidity % | barometer mb |
| 20260504184548 | 83 | 98 | 9.0 | 14.0 | 0.00 | 0.00 | 0.00 | 51 | 1015.9 |
| 20260504183049 | 83 | 67 | 6.0 | 13.0 | 0.00 | 0.00 | 0.00 | 49 | 1016.1 |
| 20260504181547 | 83 | 83 | 6.0 | 13.0 | 0.00 | 0.00 | 0.00 | 50 | 1016.3 |
| 20260504180041 | 82 | 69 | 6.0 | 14.0 | 0.00 | 0.00 | 0.00 | 53 | 1016.5 |
| 20260504174535 | 81 | 70 | 8.0 | 13.0 | 0.00 | 0.00 | 0.00 | 51 | 1016.7 |
| 20260504173035 | 83 | 44 | 7.0 | 12.0 | 0.00 | 0.00 | 0.00 | 52 | 1016.7 |
| 20260504171542 | 80 | 62 | 6.0 | 11.0 | 0.00 | 0.00 | 0.00 | 54 | 1016.8 |
| 20260504081545 | 68 | 24 | 5.0 | 9.0 | 0.00 | 0.03 | 0.00 | 80 | 1015.7 |
| 20260504044541 | 68 | 11 | 2.0 | 8.0 | 0.00 | 0.14 | 0.00 | 80 | 1017.5 |
| 20260504043040 | 68 | 15 | 2.0 | 7.0 | 0.00 | 0.14 | 0.00 | 80 | 1017.7 |
| 20260504041535 | 68 | 18 | 2.0 | 8.0 | 0.00 | 0.14 | 0.00 | 80 | 1017.7 |
| 20260504040037 | 68 | 5 | 2.0 | 8.0 | 0.00 | 0.14 | 0.00 | 82 | 1017.7 |
| 20260504034552 | 69 | 46 | 2.0 | 7.0 | 0.00 | 0.14 | 0.14 | 78 | 1017.8 |
| 20260504033033 | 69 | 19 | 2.0 | 8.0 | 0.00 | 0.14 | 0.14 | 78 | 1017.4 |
| 20260504031541 | 69 | 40 | 2.0 | 5.0 | 0.00 | 0.14 | 0.14 | 78 | 1017.6 |
| 20260504030045 | 69 | 31 | 2.0 | 8.0 | 0.00 | 0.14 | 0.14 | 78 | 1017.7 |
| 20260504024537 | 70 | 31 | 3.0 | 8.0 | 0.00 | 0.14 | 0.14 | 77 | 1017.6 |
| 20260504023058 | 70 | 63 | 2.0 | 9.0 | 0.00 | 0.14 | 0.14 | 77 | 1017.5 |
| 20260504021540 | 70 | 32 | 2.0 | 7.0 | 0.00 | 0.14 | 0.14 | 76 | 1017.4 |
| 20260504020040 | 70 | 52 | 4.0 | 10.0 | 0.00 | 0.14 | 0.14 | 76 | 1017.3 |
| 20260504014545 | 70 | 43 | 3.0 | 9.0 | 0.00 | 0.14 | 0.14 | 75 | 1017.3 |
| 20260504013044 | 71 | 60 | 5.0 | 10.0 | 0.00 | 0.14 | 0.14 | 74 | 1017.2 |
| 20260504011543 | 71 | 46 | 4.0 | 12.0 | 0.00 | 0.14 | 0.14 | 74 | 1017.2 |
| 20260504010051 | 71 | 63 | 3.0 | 10.0 | 0.00 | 0.14 | 0.14 | 73 | 1016.9 |
| 20260504004557 | 71 | 26 | 5.0 | 12.0 | 0.00 | 0.14 | 0.14 | 73 | 1016.6 |
| 20260504003040 | 72 | 77 | 4.0 | 9.0 | 0.00 | 0.14 | 0.14 | 72 | 1016.6 |
| 20260504001535 | 72 | 50 | 4.0 | 15.0 | 0.00 | 0.14 | 0.14 | 72 | 1016.5 |
| 20260504000037 | 73 | 76 | 7.0 | 13.0 | 0.00 | 0.14 | 0.14 | 70 | 1016.2 |
| 20260503234541 | 73 | 23 | 6.0 | 10.0 | 0.00 | 0.17 | 0.14 | 70 | 1016.1 |
| 20260503233034 | 73 | 46 | 5.0 | 14.0 | 0.00 | 0.17 | 0.14 | 70 | 1016.2 |
| 20260503231535 | 73 | 46 | 5.0 | 15.0 | 0.00 | 0.17 | 0.14 | 69 | 1016.1 |
| 20260503230035 | 74 | 64 | 5.0 | 11.0 | 0.00 | 0.17 | 0.14 | 70 | 1016.1 |
| 20260503224535 | 74 | 42 | 7.0 | 13.0 | 0.00 | 0.18 | 0.14 | 69 | 1016.1 |
| 20260503223036 | 75 | 60 | 7.0 | 13.0 | 0.00 | 0.18 | 0.14 | 69 | 1016.0 |
| 20260503221541 | 75 | 58 | 6.0 | 13.0 | 0.00 | 0.18 | 0.14 | 68 | 1015.9 |
| 20260503220035 | 75 | 67 | 5.0 | 12.0 | 0.00 | 0.18 | 0.14 | 68 | 1015.9 |
| 20260503214535 | 75 | 82 | 5.0 | 12.0 | 0.00 | 0.23 | 0.14 | 68 | 1015.8 |
| 20260503213046 | 76 | 53 | 5.0 | 13.0 | 0.00 | 0.23 | 0.14 | 67 | 1015.8 |
| 20260503211541 | 77 | 59 | 4.0 | 9.0 | 0.00 | 0.23 | 0.14 | 66 | 1015.8 |
| 20260503210048 | 77 | 78 | 6.0 | 13.0 | 0.00 | 0.23 | 0.14 | 64 | 1015.8 |
| 20260503204546 | 77 | 352 | 6.0 | 11.0 | 0.00 | 0.23 | 0.14 | 64 | 1015.9 |
| 20260503203041 | 77 | 69 | 5.0 | 12.0 | 0.00 | 0.23 | 0.14 | 64 | 1016.0 |
| 20260503201542 | 77 | 51 | 4.0 | 12.0 | 0.00 | 0.23 | 0.14 | 63 | 1016.1 |
| 20260503200044 | 78 | 23 | 5.0 | 11.0 | 0.00 | 0.23 | 0.14 | 63 | 1016.2 |
| 20260503194543 | 79 | 46 | 6.0 | 13.0 | 0.00 | 0.23 | 0.14 | 62 | 1016.3 |
| 20260503193047 | 79 | 55 | 6.0 | 11.0 | 0.00 | 0.23 | 0.14 | 62 | 1016.8 |
| 20260503191538 | 79 | 80 | 5.0 | 11.0 | 0.00 | 0.23 | 0.14 | 63 | 1017.0 |
| 20260503190042 | 78 | 22 | 6.0 | 16.0 | 0.00 | 0.23 | 0.14 | 67 | 1017.3 |